Location: ??????
(41.3794°N, 22.5014°E)
Time: 21:51:09
(UTC+00:00)

Cosmos 1943 - Pass Details

Date: 30 November 2020
Orbit: 832 x 851 km, 71.0° (Epoch: 18 January)

Event Time Altitude Azimuth Distance (km) Brightness Sun altitude
Rises 16:20:52 0° 186° (S) 3,373 6.6 -14.6°
Reaches altitude 10° 16:23:21 10° 180° (S) 2,446 5.8 -15.0°
Maximum altitude 16:28:44 49° 107° (ESE) 1,081 3.4 -16.0°
Enters shadow 16:32:21 21° 42° (NE) 1,839 4.5 -16.6°
